QPF
0.00 0.00 0.00 0.00 0.00 0.00 0.00 0.00 0.00 0.00 0.00 0.00 0.00 0.00 0.00 0.00 0.00 0.00 0.00 0.00 0.00 0.00 0.00 0.00 0.00 0.00 0.00 0.00 0.00 0.00 0.00 0.00 0.00 0.00 0.00 0.00 0.00 0.00
0.00 0.00 0.00 0.00 0.00 0.00 0.00 0.00 0.00 0.00 0.00 0.00 0.00 0.00 0.00 0.00 0.00 0.00 0.00 0.00 0.00 0.00 0.00 0.00 0.00 0.00 0.00 0.00 0.00 0.00 0.00 0.00 0.00 0.00 0.00 0.00 0.00 0.00
0.00 0.00 0.00 0.00 0.00 0.00 0.00 0.00 0.00 0.00 0.00 0.00 0.00 0.00 0.00 0.00 0.00 0.00 0.00 0.00 0.00 0.00 0.00 0.00 0.00 0.00 0.00 0.00 0.00 0.00 0.00 0.00 0.00 0.00 0.00 0.00 0.00 0.01
0.00 0.00 0.00 0.00 0.00 0.00 0.00 0.00 0.00 0.00 0.00 0.00 0.00 0.00 0.00 0.00 0.00 0.00 0.00 0.00 0.00 0.00 0.00 0.00 0.00 0.00 0.00 0.00 0.00 0.00 0.00 0.00 0.00 0.00 0.00 0.00 0.01 0.01
0.00 0.00 0.00 0.00 0.00 0.00 0.00 0.00 0.00 0.00 0.00 0.00 0.00 0.00 0.00 0.00 0.00 0.00 0.00 0.00 0.00 0.00 0.00 0.00 0.00 0.00 0.00 0.00 0.00 0.00 0.00 0.00 0.00 0.00 0.01 0.01 0.01 0.01
0.00 0.00 0.00 0.00 0.00 0.00 0.00 0.00 0.00 0.00 0.00 0.00 0.00 0.00 0.00 0.00 0.00 0.00 0.00 0.00 0.00 0.00 0.00 0.00 0.00 0.00 0.00 0.00 0.00 0.00 0.00 0.00 0.00 0.00 0.01 0.01 0.02 0.02
0.00 0.00 0.00 0.00 0.00 0.00 0.00 0.00 0.00 0.00 0.00 0.00 0.00 0.00 0.00 0.00 0.00 0.00 0.00 0.00 0.00 0.00 0.00 0.00 0.00 0.00 0.00 0.00 0.00 0.00 0.00 0.00 0.00 0.00 0.00 0.01 0.01 0.01
0.00 0.00 0.00 0.00 0.00 0.00 0.00 0.00 0.00 0.00 0.00 0.00 0.00 0.00 0.00 0.00 0.00 0.00 0.00 0.00 0.00 0.00 0.00 0.00 0.00 0.00 0.00 0.00 0.00 0.00 0.00 0.00 0.00 0.00 0.01 0.01 0.01 0.02
0.00 0.00 0.00 0.00 0.00 0.00 0.00 0.00 0.00 0.00 0.00 0.00 0.00 0.00 0.00 0.00 0.00 0.00 0.00 0.00 0.00 0.00 0.00 0.00 0.00 0.00 0.00 0.00 0.00 0.00 0.00 0.00 0.00 0.00 0.00 0.00 0.01 0.02
0.00 0.00 0.00 0.00 0.00 0.00 0.00 0.00 0.00 0.00 0.00 0.00 0.00 0.00 0.00 0.00 0.00 0.00 0.00 0.00 0.00 0.00 0.00 0.00 0.00 0.00 0.00 0.00 0.00 0.00 0.00 0.00 0.00 0.00 0.00 0.01 0.01 0.00
0.00 0.00 0.00 0.00 0.00 0.00 0.00 0.00 0.00 0.00 0.00 0.00 0.00 0.00 0.00 0.00 0.00 0.00 0.00 0.00 0.00 0.00 0.00 0.00 0.00 0.00 0.00 0.00 0.00 0.00 0.00 0.00 0.00 0.00 0.00 0.01 0.00 0.00
0.00 0.00 0.00 0.00 0.00 0.00 0.00 0.00 0.00 0.00 0.00 0.00 0.00 0.00 0.00 0.00 0.00 0.00 0.00 0.00 0.00 0.00 0.00 0.00 0.00 0.00 0.00 0.00 0.00 0.00 0.00 0.00 0.00 0.00 0.00 0.00 0.00 0.00
0.00 0.00 0.00 0.00 0.00 0.00 0.00 0.00 0.00 0.00 0.00 0.00 0.00 0.00 0.00 0.00 0.00 0.00 0.00 0.00 0.00 0.00 0.00 0.00 0.00 0.00 0.00 0.00 0.00 0.00 0.00 0.00 0.00 0.00 0.00 0.00 0.00 0.00
0.00 0.00 0.00 0.00 0.00 0.00 0.00 0.00 0.00 0.00 0.00 0.00 0.00 0.00 0.00 0.00 0.00 0.00 0.00 0.00 0.00 0.00 0.00 0.00 0.00 0.00 0.00 0.00 0.00 0.00 0.00 0.00 0.00 0.00 0.00 0.00 0.00 0.00
0.00 0.00 0.00 0.00 0.00 0.00 0.00 0.00 0.00 0.00 0.00 0.00 0.00 0.00 0.00 0.00 0.00 0.00 0.00 0.00 0.00 0.00 0.00 0.00 0.00 0.00 0.00 0.00 0.00 0.00 0.00 0.00 0.00 0.00 0.00 0.00 0.00 0.00
0.00 0.00 0.00 0.00 0.00 0.00 0.00 0.00 0.00 0.00 0.00 0.00 0.00 0.00 0.00 0.00 0.00 0.00 0.00 0.00 0.00 0.00 0.00 0.00 0.00 0.00 0.00 0.00 0.00 0.00 0.00 0.00 0.00 0.00 0.00 0.00 0.00 0.00
0.00 0.00 0.00 0.00 0.00 0.00 0.00 0.00 0.00 0.00 0.00 0.00 0.00 0.00 0.00 0.00 0.00 0.00 0.00 0.00 0.00 0.00 0.00 0.00 0.00 0.00 0.00 0.00 0.00 0.00 0.00 0.00 0.00 0.00 0.00 0.00 0.00 0.00
0.00 0.00 0.00 0.00 0.00 0.00 0.00 0.00 0.00 0.00 0.00 0.00 0.00 0.00 0.00 0.00 0.00 0.00 0.00 0.00 0.00 0.00 0.00 0.00 0.00 0.00 0.00 0.00 0.00 0.00 0.00 0.00 0.00 0.00 0.00 0.00 0.00 0.00
0.00 0.00 0.00 0.00 0.00 0.00 0.00 0.00 0.00 0.00 0.00 0.00 0.00 0.00 0.00 0.00 0.00 0.00 0.00 0.00 0.00 0.00 0.00 0.00 0.00 0.00 0.00 0.00 0.00 0.00 0.00 0.00 0.00 0.00 0.00 0.00 0.00 0.00
0.00 0.00 0.00 0.00 0.00 0.00 0.00 0.00 0.00 0.00 0.00 0.00 0.00 0.00 0.00 0.00 0.00 0.00 0.00 0.00 0.00 0.00 0.00 0.00 0.00 0.00 0.00 0.00 0.00 0.00 0.00 0.00 0.00 0.00 0.00 0.00 0.00 0.00
0.00 0.00 0.00 0.00 0.00 0.00 0.00 0.00 0.00 0.00 0.00 0.00 0.00 0.00 0.00 0.00 0.00 0.00 0.00 0.00 0.00 0.00 0.00 0.00 0.00 0.00 0.00 0.00 0.00 0.00 0.00 0.00 0.00 0.00 0.00 0.00 0.00 0.00
0.00 0.00 0.00 0.00 0.00 0.00 0.00 0.00 0.00 0.00 0.00 0.00 0.00 0.00 0.00 0.00 0.00 0.00 0.00 0.00 0.00 0.00 0.00 0.00 0.00 0.00 0.00 0.00 0.00 0.00 0.00 0.00 0.00 0.00 0.00 0.00 0.00 0.00
0.00 0.00 0.00 0.00 0.00 0.00 0.00 0.00 0.00 0.00 0.00 0.00 0.00 0.00 0.00 0.00 0.00 0.00 0.00 0.00 0.00 0.00 0.00 0.00 0.00 0.00 0.00 0.00 0.00 0.00 0.00 0.00 0.00 0.00 0.00 0.00 0.00 0.00
MSLP
1022.26 1023.03 1023.63 1023.61 1023.60 1023.66 1023.69 1024.16 1024.94 1026.60 1027.20 1027.76 1027.99 1027.88 1028.05 1027.81 1027.70 1028.13 1027.93 1027.76 1027.64 1027.13 1026.75 1026.60 1026.33 1025.77 1025.26 1025.17 1024.80 1024.42 1024.02 1023.56 1023.14 1022.64 1022.09 1021.54 1021.08 1020.79
1022.42 1023.17 1023.58 1023.81 1024.38 1024.56 1024.64 1024.92 1025.03 1025.75 1027.09 1027.69 1028.17 1028.25 1028.03 1027.97 1028.15 1028.21 1028.09 1027.81 1027.61 1027.09 1026.76 1026.53 1026.20 1025.72 1025.30 1024.93 1024.76 1024.33 1023.78 1023.21 1022.89 1022.48 1021.96 1021.36 1021.05 1020.38
1023.25 1023.48 1024.16 1024.19 1024.72 1025.33 1025.51 1025.62 1025.64 1026.07 1027.23 1028.19 1028.31 1028.29 1028.39 1028.37 1028.58 1028.49 1028.05 1027.86 1027.61 1027.15 1026.77 1026.46 1025.97 1025.91 1025.54 1024.98 1024.63 1024.10 1023.63 1023.26 1022.67 1022.08 1021.53 1021.12 1020.56 1020.28
1023.66 1024.03 1024.47 1024.66 1025.14 1025.78 1026.31 1026.28 1026.39 1026.62 1026.95 1028.09 1028.77 1028.49 1028.40 1028.76 1028.83 1028.37 1028.22 1027.94 1027.91 1027.42 1026.72 1026.29 1026.18 1025.92 1025.43 1024.92 1024.49 1024.07 1023.79 1023.21 1022.67 1021.83 1021.29 1020.84 1020.25 1019.75
1023.90 1024.33 1024.86 1025.47 1025.97 1026.50 1026.70 1026.81 1026.94 1027.10 1027.62 1028.10 1028.98 1028.84 1028.76 1028.97 1028.57 1028.60 1028.38 1028.47 1027.89 1027.49 1026.94 1026.85 1026.36 1025.87 1025.38 1025.13 1024.53 1023.98 1023.56 1022.96 1022.25 1021.49 1020.93 1020.49 1019.92 1019.40
1024.23 1025.02 1025.41 1025.90 1026.05 1026.55 1027.02 1027.17 1027.42 1027.93 1028.08 1028.81 1029.12 1029.10 1028.90 1028.94 1028.80 1028.93 1028.54 1028.42 1027.84 1027.39 1027.19 1026.99 1026.66 1026.21 1025.63 1025.00 1024.49 1023.93 1023.29 1022.41 1021.91 1021.39 1020.70 1020.12 1019.49 1018.96
1025.25 1025.49 1025.75 1026.00 1026.39 1026.84 1027.10 1027.52 1027.80 1028.29 1028.92 1028.90 1029.28 1029.39 1029.38 1029.49 1029.34 1029.38 1029.06 1028.62 1028.09 1027.99 1027.51 1027.23 1026.67 1026.16 1025.60 1024.96 1024.34 1023.67 1022.78 1022.27 1021.78 1021.19 1020.58 1019.75 1019.20 1018.63
1025.61 1026.17 1026.09 1026.16 1026.48 1026.91 1027.27 1027.64 1027.95 1028.20 1028.82 1028.99 1029.65 1029.81 1029.67 1029.57 1029.67 1029.71 1029.57 1028.85 1028.59 1028.17 1027.69 1026.88 1026.59 1026.07 1025.41 1024.84 1024.16 1023.39 1022.41 1022.07 1021.56 1020.98 1020.26 1019.64 1019.08 1018.24
1026.26 1026.68 1026.69 1026.83 1027.23 1027.60 1027.56 1027.68 1027.75 1027.97 1028.46 1029.15 1029.72 1029.83 1029.89 1029.63 1029.57 1029.42 1029.31 1029.12 1028.99 1028.06 1027.77 1026.69 1026.44 1025.94 1025.24 1024.39 1023.70 1023.12 1022.46 1021.94 1021.34 1020.72 1020.11 1019.42 1018.68 1018.05
1026.67 1026.98 1027.04 1027.38 1027.52 1027.88 1028.10 1028.31 1028.48 1028.89 1028.98 1029.21 1029.46 1029.67 1029.59 1029.47 1029.47 1029.33 1029.20 1029.14 1028.55 1027.76 1027.55 1027.19 1026.51 1026.04 1025.13 1024.00 1023.60 1023.06 1022.54 1021.83 1021.23 1020.45 1019.76 1019.10 1018.38 1017.62
1026.83 1027.17 1027.52 1027.59 1027.58 1027.77 1028.13 1028.37 1028.93 1029.36 1029.18 1029.09 1029.08 1029.09 1029.26 1029.18 1029.33 1029.43 1029.39 1029.14 1028.53 1027.79 1027.55 1027.53 1026.78 1025.80 1024.88 1024.01 1023.60 1023.07 1022.41 1021.78 1021.03 1020.24 1019.52 1018.77 1018.01 1017.02
1027.08 1027.44 1027.59 1027.83 1027.69 1028.02 1028.24 1028.56 1029.08 1029.52 1029.55 1029.68 1029.67 1029.80 1029.94 1029.88 1029.42 1029.47 1029.32 1029.21 1028.97 1028.34 1027.80 1027.72 1026.91 1026.54 1025.03 1024.07 1023.45 1022.99 1022.39 1021.62 1020.97 1020.28 1019.51 1018.61 1017.75 1016.80
1027.44 1027.95 1028.01 1027.71 1028.00 1027.98 1028.42 1028.73 1029.01 1029.59 1029.64 1029.81 1029.92 1030.16 1030.10 1029.95 1029.85 1029.54 1029.24 1029.10 1029.08 1028.87 1027.97 1027.74 1027.24 1026.63 1026.27 1024.62 1023.42 1022.55 1022.31 1021.57 1020.99 1020.18 1019.28 1018.50 1017.50 1016.77
1027.50 1028.03 1028.10 1027.97 1028.17 1028.34 1028.70 1028.65 1028.96 1029.47 1029.82 1029.93 1029.94 1029.93 1029.97 1030.02 1030.01 1029.63 1029.14 1028.93 1028.74 1028.42 1027.82 1027.63 1027.47 1026.84 1025.93 1024.78 1023.70 1022.73 1022.09 1021.33 1020.79 1020.20 1019.38 1018.37 1017.45 1016.63
1027.75 1027.85 1027.82 1028.08 1028.48 1028.81 1028.70 1028.87 1029.28 1029.73 1029.87 1030.03 1030.05 1029.97 1030.05 1029.92 1029.63 1029.39 1029.02 1028.70 1028.39 1027.95 1027.43 1027.16 1027.02 1026.36 1025.73 1024.92 1024.19 1023.04 1022.14 1021.12 1020.72 1020.16 1019.23 1018.41 1017.68 1016.83
1027.53 1028.39 1028.64 1028.75 1028.80 1028.92 1029.27 1029.45 1029.62 1029.89 1029.88 1030.01 1030.13 1030.08 1029.94 1029.89 1029.72 1029.30 1029.06 1028.82 1028.46 1027.71 1027.10 1026.72 1026.24 1025.97 1025.39 1024.39 1024.05 1023.16 1022.45 1022.06 1020.73 1020.08 1019.24 1018.13 1017.42 1016.73
1028.24 1028.60 1028.80 1029.07 1029.47 1029.70 1029.84 1029.99 1030.05 1029.99 1029.97 1030.08 1030.20 1030.25 1030.11 1029.96 1029.66 1029.27 1029.19 1028.98 1028.96 1028.21 1027.19 1026.22 1025.65 1025.29 1024.79 1024.26 1023.67 1022.90 1022.24 1021.50 1020.71 1019.90 1018.96 1017.98 1017.16 1016.36
1027.98 1028.71 1029.24 1029.63 1029.99 1030.23 1030.36 1030.27 1030.11 1030.09 1030.19 1030.33 1030.41 1030.41 1030.27 1030.09 1029.84 1029.55 1029.33 1029.21 1028.97 1028.33 1027.57 1026.40 1025.57 1024.77 1024.01 1023.54 1022.86 1022.57 1022.01 1021.25 1020.40 1019.58 1018.85 1018.13 1017.06 1016.02
1028.17 1028.92 1029.41 1029.86 1030.18 1030.19 1030.19 1030.18 1030.26 1030.25 1030.31 1030.45 1030.49 1030.42 1030.33 1030.18 1030.02 1029.85 1029.53 1029.20 1028.65 1028.04 1027.39 1026.56 1026.05 1025.51 1024.54 1023.75 1022.69 1022.13 1021.81 1021.00 1020.18 1019.26 1018.60 1018.06 1017.21 1015.99
1028.30 1029.00 1029.49 1029.79 1030.05 1030.14 1030.13 1030.17 1030.19 1030.29 1030.35 1030.41 1030.39 1030.33 1030.26 1030.16 1030.26 1030.01 1029.60 1029.04 1028.36 1027.75 1027.43 1026.65 1026.17 1025.34 1024.83 1024.50 1023.54 1022.15 1021.58 1020.92 1020.27 1019.20 1018.23 1017.56 1016.76 1015.77
1028.61 1029.08 1029.32 1029.58 1029.70 1029.79 1029.89 1030.01 1030.13 1030.22 1030.25 1030.29 1030.28 1030.22 1030.12 1030.02 1029.94 1029.70 1029.43 1028.50 1028.03 1027.73 1027.24 1026.51 1025.52 1024.62 1024.66 1024.71 1024.04 1022.69 1021.29 1020.70 1020.05 1019.27 1018.30 1017.64 1016.69 1015.92
1028.56 1028.88 1029.15 1029.31 1029.43 1029.50 1029.65 1029.84 1029.97 1030.06 1030.14 1030.21 1030.18 1030.09 1029.96 1029.85 1029.64 1029.53 1029.08 1028.59 1028.03 1027.60 1026.91 1026.09 1025.41 1024.98 1024.97 1024.97 1024.15 1023.03 1021.74 1020.63 1019.76 1018.87 1018.36 1017.99 1017.37 1016.34
1028.48 1028.81 1029.11 1029.26 1029.06 1029.30 1029.53 1029.65 1029.77 1029.84 1029.96 1030.06 1030.10 1030.02 1029.89 1029.75 1029.48 1029.29 1028.90 1028.38 1027.91 1027.34 1026.71 1026.15 1025.42 1024.97 1025.29 1024.95 1024.08 1023.08 1022.26 1021.33 1020.34 1019.48 1018.58 1017.85 1017.26 1016.73
Thickness
5521 5516 5512 5513 5516 5518 5518 5516 5510 5500 5495 5486 5483 5481 5477 5475 5473 5465 5463 5456 5451 5451 5449 5445 5442 5440 5438 5432 5427 5423 5418 5413 5407 5401 5396 5390 5383 5375
5508 5504 5503 5503 5502 5501 5502 5500 5499 5496 5485 5478 5470 5467 5464 5460 5454 5451 5449 5445 5441 5440 5438 5433 5429 5427 5423 5419 5412 5407 5402 5396 5388 5381 5375 5367 5359 5353
5491 5493 5490 5493 5490 5485 5484 5485 5487 5483 5473 5461 5455 5453 5448 5445 5439 5437 5435 5434 5432 5429 5425 5421 5417 5410 5405 5401 5396 5390 5384 5377 5370 5364 5356 5348 5340 5332
5481 5481 5480 5481 5478 5473 5471 5473 5471 5467 5463 5450 5440 5440 5438 5432 5428 5428 5425 5421 5418 5413 5411 5408 5401 5395 5392 5386 5380 5372 5363 5356 5349 5343 5336 5328 5321 5314
5471 5470 5468 5464 5462 5460 5457 5457 5455 5453 5447 5442 5432 5431 5428 5422 5421 5417 5414 5408 5406 5400 5396 5391 5387 5383 5376 5367 5360 5354 5345 5338 5332 5326 5319 5310 5301 5294
5460 5456 5456 5453 5453 5449 5446 5444 5442 5437 5436 5427 5423 5420 5418 5414 5412 5405 5401 5397 5394 5390 5381 5378 5370 5363 5357 5350 5342 5335 5327 5322 5314 5305 5297 5289 5283 5279
5445 5445 5446 5444 5442 5439 5438 5436 5432 5426 5419 5419 5413 5410 5406 5401 5399 5393 5388 5384 5383 5376 5366 5362 5354 5347 5338 5331 5326 5319 5312 5305 5296 5285 5278 5274 5270 5266
5438 5435 5438 5438 5435 5432 5430 5426 5424 5418 5412 5409 5402 5398 5396 5392 5385 5380 5374 5373 5365 5364 5352 5343 5339 5329 5322 5314 5305 5300 5294 5285 5277 5270 5265 5261 5258 5257
5428 5426 5428 5427 5425 5423 5420 5418 5416 5411 5406 5400 5394 5389 5384 5381 5377 5372 5366 5360 5350 5348 5341 5334 5325 5314 5302 5294 5286 5280 5273 5267 5263 5258 5254 5250 5248 5246
5419 5418 5418 5417 5417 5414 5412 5408 5405 5400 5397 5391 5387 5381 5378 5372 5365 5358 5353 5342 5336 5333 5328 5318 5310 5300 5289 5278 5266 5260 5254 5252 5250 5248 5244 5241 5239 5238
5412 5410 5409 5409 5408 5406 5404 5401 5395 5389 5387 5383 5379 5375 5367 5361 5354 5346 5336 5328 5322 5315 5309 5297 5290 5290 5280 5268 5253 5246 5243 5242 5241 5239 5234 5233 5232 5233
5405 5403 5401 5401 5400 5399 5399 5394 5386 5380 5377 5374 5370 5362 5354 5346 5339 5331 5322 5313 5306 5298 5291 5283 5272 5262 5268 5261 5247 5241 5238 5235 5231 5228 5226 5226 5225 5226
5398 5393 5393 5395 5394 5395 5390 5385 5380 5373 5370 5364 5358 5348 5340 5333 5324 5315 5308 5300 5290 5278 5273 5263 5254 5246 5235 5241 5240 5236 5231 5229 5225 5222 5219 5218 5219 5217
5391 5387 5389 5390 5387 5384 5380 5377 5373 5367 5361 5354 5346 5339 5329 5320 5310 5303 5294 5284 5276 5269 5260 5248 5236 5230 5228 5230 5229 5229 5223 5222 5220 5215 5212 5214 5213 5212
5387 5385 5384 5381 5376 5374 5373 5370 5365 5357 5349 5340 5334 5326 5316 5307 5298 5288 5280 5272 5263 5254 5245 5234 5228 5224 5219 5219 5218 5218 5220 5218 5213 5210 5207 5208 5208 5206
5380 5375 5373 5372 5371 5369 5365 5359 5353 5344 5336 5328 5320 5312 5302 5293 5285 5278 5269 5259 5246 5237 5230 5226 5221 5217 5215 5215 5211 5210 5207 5203 5208 5205 5204 5204 5204 5202
5372 5371 5369 5366 5361 5357 5353 5346 5338 5332 5323 5316 5307 5298 5290 5282 5274 5265 5254 5242 5231 5228 5224 5220 5216 5213 5212 5210 5208 5206 5203 5202 5202 5202 5203 5201 5202 5202
5369 5365 5360 5356 5352 5345 5337 5331 5327 5320 5312 5303 5294 5285 5277 5269 5260 5250 5240 5228 5222 5219 5216 5215 5215 5214 5212 5207 5206 5204 5200 5199 5200 5201 5200 5198 5201 5202
5363 5357 5352 5345 5339 5334 5328 5323 5316 5308 5299 5291 5282 5274 5265 5257 5248 5237 5227 5219 5215 5212 5209 5207 5206 5203 5205 5205 5203 5202 5201 5198 5198 5199 5199 5197 5198 5202
5355 5349 5343 5338 5331 5326 5320 5314 5306 5298 5289 5280 5272 5264 5255 5246 5233 5224 5218 5213 5211 5207 5201 5200 5198 5199 5199 5196 5198 5200 5199 5197 5195 5198 5200 5200 5201 5204
5347 5341 5336 5330 5324 5318 5312 5304 5296 5287 5279 5271 5263 5254 5244 5234 5224 5215 5209 5211 5208 5199 5201 5198 5201 5200 5196 5192 5190 5194 5197 5195 5195 5196 5198 5198 5199 5201
5339 5334 5328 5322 5316 5310 5303 5295 5286 5278 5270 5261 5252 5243 5234 5225 5217 5208 5205 5200 5199 5199 5200 5199 5199 5196 5190 5187 5190 5191 5195 5196 5198 5198 5197 5196 5197 5203
5330 5325 5319 5313 5308 5300 5293 5285 5277 5269 5260 5250 5240 5232 5223 5215 5208 5202 5198 5197 5196 5197 5198 5197 5196 5192 5186 5184 5191 5191 5188 5193 5194 5194 5196 5198 5199 5201